Terug naar catalogus

KUIPER-00194

ActiefCommunicatieLEO
NORAD 68577·PAYLOAD·🇺🇸 United States

Gelanceerd Apr 4, 2026 vanaf Cape Canaveral Space Force Station

Loading…

Volgende Passages (komende 24 uur)

TLE

VersSource: CelesTrak SupGP

Epoch: Sep 15, 2026, 04:34 UTC

1 68577C 26072E   26258.19039352  .00007107  00000+0  93018-3 0  2581
2 68577  51.9004 152.6797 0001004  94.1372 142.1146 14.79931716    10

Volg KUIPER-00194 in realtime met AllMySat

Download on the App Store